SJV596 WADD-WAAA

Flight info

Callsign SJV596
Flight time 1h 8m
Altitude 32999
Route PEDET W41 LIPOT
Aircraft A320/M-SDE3FGHIRWY/LB1

Departure

Time 2026-04-30 08:14
Airport Denpasar I Gusti Ngurah Rai International Airport (WADD)

Arrival

Time 2026-04-30 09:22
Airport Sultan Hasanuddin International Airport (WAAA)
Time Latitude Longitude Altitude Speed Heading
2026-04-30 07:46 -8.74539 115.16868 33 ft 0 kts 358°
2026-04-30 08:00 -8.74552 115.16868 33 ft 2 kts 358°
2026-04-30 08:00 -8.74569 115.16869 33 ft 2 kts 358°
2026-04-30 08:01 -8.74585 115.16870 31 ft 2 kts 358°
2026-04-30 08:01 -8.74602 115.16870 32 ft 2 kts 358°
2026-04-30 08:01 -8.74618 115.16871 32 ft 2 kts 358°
2026-04-30 08:01 -8.74635 115.16872 29 ft 2 kts 358°
2026-04-30 08:02 -8.74664 115.16885 32 ft 2 kts 304°
2026-04-30 08:02 -8.74671 115.16899 29 ft 2 kts 279°
2026-04-30 08:03 -8.74672 115.16905 30 ft 0 kts 271°
2026-04-30 08:07 -8.74672 115.16895 30 ft 3 kts 269°
2026-04-30 08:07 -8.74674 115.16860 32 ft 7 kts 267°
2026-04-30 08:08 -8.74676 115.16797 32 ft 11 kts 268°
2026-04-30 08:08 -8.74680 115.16713 32 ft 13 kts 268°
2026-04-30 08:08 -8.74683 115.16630 32 ft 12 kts 267°
2026-04-30 08:08 -8.74687 115.16534 32 ft 16 kts 267°
2026-04-30 08:09 -8.74692 115.16422 32 ft 16 kts 268°
2026-04-30 08:09 -8.74697 115.16307 32 ft 11 kts 268°
2026-04-30 08:09 -8.74700 115.16224 32 ft 14 kts 268°
2026-04-30 08:09 -8.74704 115.16124 32 ft 15 kts 268°
2026-04-30 08:10 -8.74709 115.16008 32 ft 18 kts 268°
2026-04-30 08:10 -8.74714 115.15875 32 ft 19 kts 268°
2026-04-30 08:10 -8.74718 115.15770 32 ft 15 kts 267°
2026-04-30 08:10 -8.74723 115.15656 32 ft 16 kts 268°
2026-04-30 08:11 -8.74728 115.15545 32 ft 15 kts 268°
2026-04-30 08:11 -8.74731 115.15463 32 ft 10 kts 268°
2026-04-30 08:11 -8.74770 115.15397 31 ft 13 kts 199°
2026-04-30 08:11 -8.74800 115.15393 30 ft 4 kts 184°
2026-04-30 08:12 -8.74852 115.15391 28 ft 11 kts 181°
2026-04-30 08:12 -8.74860 115.15390 28 ft 0 kts 181°
2026-04-30 08:12 -8.74873 115.15390 28 ft 4 kts 178°
2026-04-30 08:12 -8.74895 115.15410 28 ft 4 kts 109°
2026-04-30 08:13 -8.74895 115.15458 28 ft 20 kts 89°
2026-04-30 08:13 -8.74878 115.15885 28 ft 98 kts 87°
2026-04-30 08:13 -8.74841 115.16788 29 ft 156 kts 89°
2026-04-30 08:13 -8.74776 115.17950 480 ft 171 kts 87°
2026-04-30 08:14 -8.74647 115.19193 1043 ft 184 kts 85°
2026-04-30 08:14 -8.74452 115.20510 1692 ft 196 kts 82°
2026-04-30 08:14 -8.74193 115.21924 2292 ft 215 kts 83°
2026-04-30 08:14 -8.74157 115.23503 2886 ft 236 kts 93°
2026-04-30 08:15 -8.74262 115.25187 3800 ft 236 kts 93°
2026-04-30 08:15 -8.74331 115.26794 5074 ft 225 kts 90°
2026-04-30 08:15 -8.74343 115.28369 6083 ft 224 kts 89°
2026-04-30 08:15 -8.74311 115.29938 6949 ft 227 kts 88°
2026-04-30 08:16 -8.74253 115.31566 7807 ft 231 kts 87°
2026-04-30 08:16 -8.74185 115.33175 8638 ft 234 kts 88°
2026-04-30 08:16 -8.74113 115.34824 9484 ft 237 kts 88°
2026-04-30 08:16 -8.74039 115.36500 10268 ft 239 kts 88°
2026-04-30 08:17 -8.73967 115.38192 11029 ft 242 kts 88°
2026-04-30 08:17 -8.73896 115.39901 11807 ft 245 kts 88°
2026-04-30 08:17 -8.73825 115.41626 12593 ft 247 kts 88°
2026-04-30 08:17 -8.73753 115.43365 13384 ft 248 kts 88°
2026-04-30 08:18 -8.73681 115.45118 14092 ft 251 kts 88°
2026-04-30 08:18 -8.73632 115.46293 14517 ft 254 kts 88°
2026-04-30 08:18 -8.73557 115.48107 15204 ft 256 kts 88°
2026-04-30 08:18 -8.73378 115.49881 15836 ft 259 kts 74°
2026-04-30 08:19 -8.72517 115.51479 16449 ft 264 kts 48°
2026-04-30 08:19 -8.71161 115.52800 17077 ft 269 kts 44°
2026-04-30 08:19 -8.68079 115.55607 18430 ft 275 kts 44°
2026-04-30 08:20 -8.66654 115.56916 18965 ft 278 kts 44°
2026-04-30 08:20 -8.65222 115.58242 19499 ft 280 kts 44°
2026-04-30 08:20 -8.63779 115.59584 20028 ft 283 kts 44°
2026-04-30 08:20 -8.62325 115.60938 20569 ft 286 kts 44°
2026-04-30 08:21 -8.60850 115.62314 21065 ft 290 kts 44°
2026-04-30 08:21 -8.59360 115.63704 21579 ft 293 kts 44°
2026-04-30 08:21 -8.57854 115.65111 22074 ft 296 kts 44°
2026-04-30 08:21 -8.56332 115.66531 22564 ft 300 kts 44°
2026-04-30 08:22 -8.54790 115.67969 23038 ft 303 kts 44°
2026-04-30 08:22 -8.53229 115.69423 23515 ft 306 kts 44°
2026-04-30 08:22 -8.51655 115.70888 23912 ft 309 kts 44°
2026-04-30 08:22 -8.50087 115.72348 24308 ft 312 kts 44°
2026-04-30 08:23 -8.48486 115.73839 24705 ft 314 kts 44°
2026-04-30 08:23 -8.46867 115.75346 25078 ft 318 kts 44°
2026-04-30 08:23 -8.45234 115.76866 25470 ft 320 kts 44°
2026-04-30 08:23 -8.43586 115.78400 25845 ft 323 kts 44°
2026-04-30 08:24 -8.41922 115.79948 26207 ft 326 kts 44°
2026-04-30 08:24 -8.40246 115.81508 26605 ft 328 kts 44°
2026-04-30 08:24 -8.38560 115.83077 26967 ft 331 kts 44°
2026-04-30 08:24 -8.36858 115.84659 27312 ft 334 kts 44°
2026-04-30 08:25 -8.35139 115.86258 27683 ft 336 kts 44°
2026-04-30 08:25 -8.33410 115.87866 28031 ft 339 kts 44°
2026-04-30 08:25 -8.31667 115.89487 28358 ft 343 kts 44°
2026-04-30 08:25 -8.29907 115.91123 28721 ft 344 kts 44°
2026-04-30 08:26 -8.28134 115.92771 29041 ft 348 kts 44°
2026-04-30 08:26 -8.26346 115.94434 29359 ft 350 kts 44°
2026-04-30 08:26 -8.24571 115.96084 29711 ft 352 kts 44°
2026-04-30 08:26 -8.22763 115.97764 30026 ft 355 kts 44°
2026-04-30 08:27 -8.20938 115.99461 30286 ft 358 kts 44°
2026-04-30 08:27 -8.19102 116.01166 30579 ft 360 kts 44°
2026-04-30 08:27 -8.17258 116.02880 30879 ft 361 kts 44°
2026-04-30 08:27 -8.15399 116.04606 31150 ft 364 kts 44°
2026-04-30 08:28 -8.13528 116.06345 31413 ft 366 kts 44°
2026-04-30 08:28 -8.11650 116.08088 31699 ft 368 kts 44°
2026-04-30 08:28 -8.09760 116.09844 31987 ft 370 kts 44°
2026-04-30 08:28 -8.07864 116.11604 32253 ft 372 kts 43°
2026-04-30 08:29 -8.05953 116.13379 32480 ft 374 kts 43°
2026-04-30 08:29 -8.04027 116.15168 32739 ft 377 kts 43°
2026-04-30 08:29 -8.02077 116.16978 32827 ft 384 kts 43°
2026-04-30 08:30 -7.98053 116.20713 32870 ft 403 kts 43°
2026-04-30 08:30 -7.93826 116.24634 32867 ft 422 kts 43°
2026-04-30 08:31 -7.89406 116.28733 32864 ft 440 kts 43°
2026-04-30 08:31 -7.84806 116.32998 32865 ft 458 kts 43°
2026-04-30 08:32 -7.80083 116.37374 32862 ft 467 kts 43°
2026-04-30 08:32 -7.75269 116.41834 32864 ft 466 kts 43°
2026-04-30 08:33 -7.70518 116.46233 32863 ft 467 kts 43°
2026-04-30 08:33 -7.65730 116.50666 32865 ft 466 kts 43°
2026-04-30 08:34 -7.60953 116.55088 32864 ft 466 kts 43°
2026-04-30 08:34 -7.56176 116.59508 32872 ft 466 kts 43°
2026-04-30 08:35 -7.52204 116.63185 32868 ft 466 kts 43°
2026-04-30 08:35 -7.47879 116.68037 32869 ft 465 kts 50°
2026-04-30 08:36 -7.43716 116.73015 32862 ft 463 kts 50°
2026-04-30 08:36 -7.38888 116.78772 32865 ft 462 kts 50°
2026-04-30 08:37 -7.35439 116.82884 32865 ft 462 kts 49°
2026-04-30 08:37 -7.31292 116.87829 32865 ft 461 kts 49°
2026-04-30 08:38 -7.27144 116.92772 32866 ft 462 kts 49°
2026-04-30 08:38 -7.22998 116.97711 32866 ft 462 kts 49°
2026-04-30 08:39 -7.18869 117.02629 32866 ft 462 kts 49°
2026-04-30 08:39 -7.14714 117.07576 32863 ft 462 kts 49°
2026-04-30 08:40 -7.10566 117.12514 32863 ft 462 kts 49°
2026-04-30 08:40 -7.06417 117.17452 32862 ft 462 kts 49°
2026-04-30 08:41 -7.02290 117.22361 32862 ft 462 kts 49°
2026-04-30 08:41 -6.98113 117.27327 32859 ft 462 kts 49°
2026-04-30 08:42 -6.93981 117.32240 32861 ft 462 kts 49°
2026-04-30 08:42 -6.89827 117.37177 32856 ft 462 kts 49°
2026-04-30 08:43 -6.85663 117.42126 32864 ft 462 kts 49°
2026-04-30 08:43 -6.81504 117.47065 32861 ft 463 kts 49°
2026-04-30 08:44 -6.77343 117.52006 32859 ft 463 kts 49°
2026-04-30 08:44 -6.73180 117.56947 32859 ft 463 kts 49°
2026-04-30 08:45 -6.68990 117.61814 32858 ft 463 kts 45°
2026-04-30 08:45 -6.64085 117.66008 32861 ft 463 kts 36°
2026-04-30 08:46 -6.58908 117.69883 32856 ft 463 kts 37°
2026-04-30 08:46 -6.53748 117.73765 32865 ft 464 kts 37°
2026-04-30 08:47 -6.48573 117.77654 32864 ft 464 kts 37°
2026-04-30 08:47 -6.43396 117.81544 32865 ft 464 kts 37°
2026-04-30 08:48 -6.38254 117.85404 32867 ft 464 kts 37°
2026-04-30 08:48 -6.33085 117.89285 32861 ft 463 kts 37°
2026-04-30 08:49 -6.27923 117.93159 32860 ft 463 kts 37°
2026-04-30 08:49 -6.22756 117.97036 32860 ft 463 kts 37°
2026-04-30 08:50 -6.17596 118.00908 32859 ft 462 kts 36°
2026-04-30 08:50 -6.12443 118.04772 32857 ft 463 kts 37°
2026-04-30 08:51 -6.07283 118.08641 32861 ft 463 kts 36°
2026-04-30 08:51 -6.02110 118.12518 32859 ft 463 kts 36°
2026-04-30 08:52 -5.97180 118.16603 32861 ft 462 kts 45°
2026-04-30 08:52 -5.92797 118.21318 32853 ft 462 kts 47°
2026-04-30 08:53 -5.88414 118.26042 32856 ft 462 kts 46°
2026-04-30 08:53 -5.84029 118.30764 32851 ft 462 kts 46°
2026-04-30 08:54 -5.79649 118.35482 32858 ft 462 kts 46°
2026-04-30 08:54 -5.75265 118.40203 32854 ft 461 kts 46°
2026-04-30 08:55 -5.70887 118.44916 32855 ft 461 kts 46°
2026-04-30 08:55 -5.66508 118.49630 32855 ft 461 kts 47°
2026-04-30 08:56 -5.62129 118.54347 32852 ft 461 kts 47°
2026-04-30 08:56 -5.57789 118.59025 32855 ft 460 kts 47°
2026-04-30 08:57 -5.53420 118.63734 32839 ft 461 kts 47°
2026-04-30 08:57 -5.51236 118.66087 32652 ft 461 kts 47°
2026-04-30 08:57 -5.49050 118.68441 32393 ft 460 kts 47°
2026-04-30 08:57 -5.46874 118.70785 32185 ft 454 kts 47°
2026-04-30 08:58 -5.44758 118.73063 31867 ft 440 kts 47°
2026-04-30 08:58 -5.42678 118.75302 31017 ft 437 kts 47°
2026-04-30 08:58 -5.40602 118.77538 30011 ft 438 kts 47°
2026-04-30 08:58 -5.38538 118.79763 29183 ft 432 kts 47°
2026-04-30 08:59 -5.36503 118.81956 28370 ft 425 kts 47°
2026-04-30 08:59 -5.34496 118.84119 27557 ft 420 kts 47°
2026-04-30 08:59 -5.32522 118.86246 26864 ft 412 kts 48°
2026-04-30 08:59 -5.30610 118.88305 26579 ft 394 kts 48°
2026-04-30 09:00 -5.28759 118.90298 25967 ft 387 kts 48°
2026-04-30 09:00 -5.26934 118.92263 25262 ft 384 kts 48°
2026-04-30 09:00 -5.25123 118.94214 24588 ft 380 kts 48°
2026-04-30 09:00 -5.23332 118.96143 23944 ft 376 kts 49°
2026-04-30 09:01 -5.21578 118.98032 23271 ft 372 kts 49°
2026-04-30 09:01 -5.19824 118.99920 22553 ft 368 kts 49°
2026-04-30 09:01 -5.18086 119.01792 21833 ft 364 kts 49°
2026-04-30 09:01 -5.16369 119.03642 21155 ft 360 kts 49°
2026-04-30 09:02 -5.12502 119.06731 19976 ft 353 kts 29°
2026-04-30 09:02 -5.10224 119.07678 19724 ft 357 kts 20°
2026-04-30 09:02 -5.07846 119.08455 19491 ft 358 kts 20°
2026-04-30 09:03 -5.05519 119.09227 19276 ft 357 kts 20°
2026-04-30 09:03 -5.03148 119.10019 19056 ft 358 kts 20°
2026-04-30 09:03 -5.00798 119.10801 18831 ft 354 kts 20°
2026-04-30 09:03 -4.98469 119.11576 18497 ft 353 kts 20°
2026-04-30 09:04 -4.96138 119.12350 18091 ft 351 kts 20°
2026-04-30 09:04 -4.93838 119.13114 17692 ft 347 kts 20°
2026-04-30 09:04 -4.91557 119.13871 17226 ft 344 kts 20°
2026-04-30 09:04 -4.89301 119.14620 16589 ft 340 kts 20°
2026-04-30 09:05 -4.87059 119.15364 15937 ft 337 kts 20°
2026-04-30 09:05 -4.84849 119.16098 15309 ft 333 kts 20°
2026-04-30 09:05 -4.82652 119.16828 14698 ft 330 kts 20°
2026-04-30 09:05 -4.80481 119.17549 14091 ft 328 kts 20°
2026-04-30 09:06 -4.78329 119.18263 13497 ft 324 kts 20°
2026-04-30 09:06 -4.76198 119.18971 12856 ft 321 kts 20°
2026-04-30 09:06 -4.74088 119.19671 12215 ft 318 kts 20°
2026-04-30 09:06 -4.72002 119.20364 11618 ft 314 kts 19°
2026-04-30 09:07 -4.69976 119.21152 10996 ft 310 kts 32°
2026-04-30 09:07 -4.68396 119.22569 10369 ft 305 kts 56°
2026-04-30 09:07 -4.67600 119.24474 10015 ft 290 kts 82°
2026-04-30 09:07 -4.67493 119.26427 9861 ft 271 kts 88°
2026-04-30 09:08 -4.67431 119.28268 9587 ft 260 kts 88°
2026-04-30 09:08 -4.67359 119.30060 9189 ft 253 kts 88°
2026-04-30 09:08 -4.67282 119.31808 9032 ft 255 kts 88°
2026-04-30 09:08 -4.67198 119.33614 8898 ft 260 kts 87°
2026-04-30 09:09 -4.67113 119.35389 8757 ft 257 kts 87°
2026-04-30 09:09 -4.67026 119.37179 8637 ft 259 kts 87°
2026-04-30 09:09 -4.66940 119.38980 8495 ft 257 kts 87°
2026-04-30 09:09 -4.66854 119.40762 8361 ft 255 kts 87°
2026-04-30 09:10 -4.66769 119.42536 8230 ft 255 kts 87°
2026-04-30 09:10 -4.66684 119.44313 8095 ft 255 kts 87°
2026-04-30 09:10 -4.66598 119.46089 7960 ft 254 kts 87°
2026-04-30 09:10 -4.66514 119.47857 7833 ft 254 kts 87°
2026-04-30 09:11 -4.66428 119.49625 7698 ft 254 kts 87°
2026-04-30 09:11 -4.66344 119.51394 7497 ft 255 kts 87°
2026-04-30 09:11 -4.66259 119.53162 7230 ft 253 kts 87°
2026-04-30 09:11 -4.66374 119.54901 6962 ft 249 kts 105°
2026-04-30 09:12 -4.67112 119.56453 6694 ft 248 kts 127°
2026-04-30 09:12 -4.68186 119.57792 6431 ft 249 kts 128°
2026-04-30 09:12 -4.69269 119.59143 6176 ft 248 kts 128°
2026-04-30 09:12 -4.70334 119.60483 6084 ft 246 kts 128°
2026-04-30 09:13 -4.71403 119.61834 6025 ft 247 kts 128°
2026-04-30 09:13 -4.72705 119.62934 6026 ft 246 kts 154°
2026-04-30 09:13 -4.74325 119.63347 5945 ft 235 kts 172°
2026-04-30 09:13 -4.75889 119.63548 5814 ft 221 kts 171°
2026-04-30 09:14 -4.77398 119.63745 5474 ft 215 kts 171°
2026-04-30 09:14 -4.78878 119.63944 5109 ft 212 kts 171°
2026-04-30 09:14 -4.80314 119.64139 4642 ft 209 kts 171°
2026-04-30 09:14 -4.81749 119.64335 4385 ft 210 kts 171°
2026-04-30 09:15 -4.83207 119.64536 4133 ft 211 kts 171°
2026-04-30 09:15 -4.84652 119.64736 3873 ft 209 kts 171°
2026-04-30 09:15 -4.86090 119.64936 3623 ft 208 kts 171°
2026-04-30 09:15 -4.87521 119.65132 3371 ft 205 kts 171°
2026-04-30 09:16 -4.88916 119.65324 3268 ft 196 kts 172°
2026-04-30 09:16 -4.90193 119.65254 3124 ft 175 kts 194°
2026-04-30 09:16 -4.91244 119.64772 2991 ft 159 kts 211°
2026-04-30 09:16 -4.92156 119.64240 2858 ft 143 kts 207°
2026-04-30 09:17 -4.93005 119.63785 2809 ft 138 kts 208°
2026-04-30 09:17 -4.93845 119.63302 2737 ft 137 kts 209°
2026-04-30 09:17 -4.94661 119.62831 2600 ft 137 kts 209°
2026-04-30 09:17 -4.95483 119.62356 2454 ft 136 kts 209°
2026-04-30 09:18 -4.96298 119.61884 2301 ft 135 kts 209°
2026-04-30 09:18 -4.97113 119.61413 2128 ft 135 kts 209°
2026-04-30 09:18 -4.97925 119.60943 1963 ft 134 kts 209°
2026-04-30 09:18 -4.98734 119.60475 1793 ft 134 kts 209°
2026-04-30 09:19 -4.99536 119.60011 1624 ft 132 kts 209°
2026-04-30 09:19 -5.00333 119.59551 1461 ft 132 kts 210°
2026-04-30 09:19 -5.01131 119.59089 1299 ft 132 kts 210°
2026-04-30 09:19 -5.01924 119.58630 1140 ft 132 kts 210°
2026-04-30 09:20 -5.02718 119.58171 992 ft 131 kts 210°
2026-04-30 09:20 -5.03510 119.57712 831 ft 132 kts 210°
2026-04-30 09:20 -5.04292 119.57241 665 ft 128 kts 211°
2026-04-30 09:20 -5.05051 119.56771 466 ft 127 kts 209°
2026-04-30 09:21 -5.05819 119.56361 302 ft 126 kts 209°
2026-04-30 09:21 -5.06588 119.55926 128 ft 127 kts 210°
2026-04-30 09:21 -5.07338 119.55492 40 ft 119 kts 210°
2026-04-30 09:21 -5.07897 119.55172 41 ft 64 kts 210°
2026-04-30 09:22 -5.08043 119.55089 40 ft 18 kts 209°
2026-04-30 09:22 -5.08143 119.54984 40 ft 17 kts 279°
2026-04-30 09:22 -5.08099 119.54902 40 ft 13 kts 301°
2026-04-30 09:22 -5.08036 119.54793 41 ft 23 kts 298°
2026-04-30 09:23 -5.08014 119.54751 39 ft 6 kts 299°
2026-04-30 09:23 -5.07948 119.54738 41 ft 16 kts 27°
2026-04-30 09:23 -5.07856 119.54792 41 ft 18 kts 30°
2026-04-30 09:23 -5.07778 119.54836 41 ft 4 kts 26°
2026-04-30 09:24 -5.07733 119.54806 39 ft 12 kts 295°
2026-04-30 09:24 -5.07708 119.54764 40 ft 0 kts 301°